Time,TemperatureF,DewpointF,PressureIn,WindDirection,WindDirectionDegrees,WindSpeedMPH,WindSpeedGustMPH,Humidity,HourlyPrecipIn,Conditions,Clouds,dailyrainin,SoftwareType,DateUTC
2013-05-14 00:01:00,61.5,53.2,30.17,North,0,0.0,0.0,74,0.00,,,0.00,meteohub,2013-05-14 04:01:00,
2013-05-14 00:02:00,61.5,53.2,30.17,North,0,0.0,0.0,74,0.00,,,0.00,meteohub,2013-05-14 04:02:00,
2013-05-14 00:03:00,61.5,53.2,30.17,North,0,0.0,0.0,74,0.00,,,0.00,meteohub,2013-05-14 04:03:00,
2013-05-14 00:05:00,61.5,52.7,30.17,North,0,0.0,1.0,73,0.00,,,0.00,meteohub,2013-05-14 04:05:00,
2013-05-14 00:11:00,61.9,52.3,30.18,North,0,0.0,1.0,71,0.00,,,0.00,meteohub,2013-05-14 04:11:00,
2013-05-14 00:17:00,62.1,51.8,30.17,North,0,0.0,1.0,69,0.00,,,0.00,meteohub,2013-05-14 04:17:00,
2013-05-14 00:22:00,62.2,51.6,30.18,North,0,0.0,1.0,68,0.00,,,0.00,meteohub,2013-05-14 04:22:00,
2013-05-14 00:27:00,62.2,51.1,30.18,North,0,0.0,0.0,67,0.00,,,0.00,meteohub,2013-05-14 04:27:00,
2013-05-14 00:32:00,62.2,51.1,30.18,North,0,0.0,0.0,67,0.00,,,0.00,meteohub,2013-05-14 04:32:00,
2013-05-14 00:37:00,62.2,50.4,30.18,North,0,0.0,0.0,65,0.00,,,0.00,meteohub,2013-05-14 04:37:00,
2013-05-14 00:42:00,62.2,50.0,30.18,North,0,0.0,0.0,64,0.00,,,0.00,meteohub,2013-05-14 04:42:00,
2013-05-14 00:47:00,62.2,48.6,30.18,North,0,0.0,1.0,61,0.00,,,0.00,meteohub,2013-05-14 04:47:00,
2013-05-14 00:52:00,62.2,47.3,30.18,North,0,1.0,1.0,58,0.00,,,0.00,meteohub,2013-05-14 04:52:00,
2013-05-14 00:57:00,62.8,46.4,30.18,North,0,0.0,4.0,55,0.00,,,0.00,meteohub,2013-05-14 04:57:00,
2013-05-14 01:02:00,63.0,46.6,30.18,North,0,0.0,4.0,55,0.00,,,0.00,meteohub,2013-05-14 05:02:00,
2013-05-14 01:07:00,63.0,45.5,30.18,North,0,0.0,5.0,53,0.00,,,0.00,meteohub,2013-05-14 05:07:00,
2013-05-14 01:12:00,63.1,44.8,30.18,North,0,2.0,5.0,51,0.00,,,0.00,meteohub,2013-05-14 05:12:00,
2013-05-14 01:17:00,63.3,44.4,30.18,North,0,0.0,5.0,50,0.00,,,0.00,meteohub,2013-05-14 05:17:00,
2013-05-14 01:22:00,63.3,44.4,30.18,North,0,1.0,5.0,50,0.00,,,0.00,meteohub,2013-05-14 05:22:00,
2013-05-14 01:27:00,63.3,44.4,30.18,North,0,0.0,3.0,50,0.00,,,0.00,meteohub,2013-05-14 05:27:00,
2013-05-14 01:32:00,63.3,44.4,30.18,North,0,0.0,3.0,50,0.00,,,0.00,meteohub,2013-05-14 05:32:00,
2013-05-14 01:37:00,63.1,44.2,30.18,North,0,0.0,3.0,50,0.00,,,0.00,meteohub,2013-05-14 05:37:00,
2013-05-14 01:42:00,63.0,44.1,30.18,North,0,0.0,3.0,50,0.00,,,0.00,meteohub,2013-05-14 05:42:00,
2013-05-14 01:47:00,62.8,44.4,30.19,North,0,0.0,3.0,51,0.00,,,0.00,meteohub,2013-05-14 05:47:00,
2013-05-14 01:52:00,62.2,45.9,30.19,North,0,0.0,3.0,55,0.00,,,0.00,meteohub,2013-05-14 05:52:00,
2013-05-14 01:57:00,61.7,46.4,30.19,North,0,0.0,0.0,57,0.00,,,0.00,meteohub,2013-05-14 05:57:00,
2013-05-14 02:02:00,61.2,46.2,30.18,North,0,0.0,0.0,58,0.00,,,0.00,meteohub,2013-05-14 06:02:00,
2013-05-14 02:07:00,60.4,46.9,30.19,North,0,0.0,0.0,61,0.00,,,0.00,meteohub,2013-05-14 06:07:00,
2013-05-14 02:12:00,60.1,46.9,30.19,North,0,0.0,0.0,62,0.00,,,0.00,meteohub,2013-05-14 06:12:00,
2013-05-14 02:17:00,59.9,48.6,30.19,North,0,0.0,0.0,66,0.00,,,0.00,meteohub,2013-05-14 06:17:00,
2013-05-14 02:22:00,59.7,48.4,30.19,North,0,0.0,0.0,66,0.00,,,0.00,meteohub,2013-05-14 06:22:00,
2013-05-14 02:27:00,59.2,47.5,30.19,North,0,0.0,0.0,65,0.00,,,0.00,meteohub,2013-05-14 06:27:00,
2013-05-14 02:32:00,58.6,47.3,30.18,North,0,0.0,0.0,66,0.00,,,0.00,meteohub,2013-05-14 06:32:00,
2013-05-14 02:38:00,58.3,47.8,30.18,North,0,0.0,0.0,68,0.00,,,0.00,meteohub,2013-05-14 06:38:00,
2013-05-14 02:44:00,57.9,47.8,30.18,North,0,0.0,0.0,69,0.00,,,0.00,meteohub,2013-05-14 06:44:00,
2013-05-14 02:50:00,57.7,48.0,30.18,North,0,0.0,0.0,70,0.00,,,0.00,meteohub,2013-05-14 06:50:00,
2013-05-14 02:56:00,57.4,47.7,30.18,North,0,0.0,0.0,70,0.00,,,0.00,meteohub,2013-05-14 06:56:00,
2013-05-14 03:02:00,57.0,47.7,30.18,North,0,0.0,0.0,71,0.00,,,0.00,meteohub,2013-05-14 07:02:00,
2013-05-14 03:07:00,56.8,47.8,30.18,North,0,0.0,0.0,72,0.00,,,0.00,meteohub,2013-05-14 07:07:00,
2013-05-14 03:12:00,56.8,48.2,30.19,North,0,0.0,0.0,73,0.00,,,0.00,meteohub,2013-05-14 07:12:00,
2013-05-14 03:17:00,56.7,47.7,30.18,North,0,0.0,0.0,72,0.00,,,0.00,meteohub,2013-05-14 07:17:00,
2013-05-14 03:22:00,56.3,47.5,30.18,North,0,0.0,0.0,72,0.00,,,0.00,meteohub,2013-05-14 07:22:00,
2013-05-14 03:27:00,55.9,47.5,30.19,North,0,0.0,0.0,73,0.00,,,0.00,meteohub,2013-05-14 07:27:00,
2013-05-14 03:32:00,56.1,48.0,30.19,North,0,0.0,0.0,74,0.00,,,0.00,meteohub,2013-05-14 07:32:00,
2013-05-14 03:37:00,56.1,48.0,30.18,North,0,0.0,0.0,74,0.00,,,0.00,meteohub,2013-05-14 07:37:00,
2013-05-14 03:42:00,56.1,48.0,30.19,North,0,0.0,0.0,74,0.00,,,0.00,meteohub,2013-05-14 07:42:00,
2013-05-14 03:47:00,56.1,48.0,30.19,North,0,0.0,0.0,74,0.00,,,0.00,meteohub,2013-05-14 07:47:00,
2013-05-14 03:53:00,56.1,47.7,30.19,North,0,0.0,0.0,73,0.00,,,0.00,meteohub,2013-05-14 07:53:00,
2013-05-14 03:58:00,56.1,46.4,30.19,North,0,0.0,0.0,70,0.00,,,0.00,meteohub,2013-05-14 07:58:00,
2013-05-14 04:04:00,56.5,46.0,30.19,North,0,0.0,0.0,68,0.00,,,0.00,meteohub,2013-05-14 08:04:00,
2013-05-14 04:10:00,56.8,45.7,30.19,North,0,0.0,0.0,66,0.00,,,0.00,meteohub,2013-05-14 08:10:00,
2013-05-14 04:16:00,57.4,45.3,30.18,North,0,1.0,2.0,64,0.00,,,0.00,meteohub,2013-05-14 08:16:00,
2013-05-14 04:22:00,57.7,45.3,30.19,North,0,1.0,4.0,63,0.00,,,0.00,meteohub,2013-05-14 08:22:00,
2013-05-14 04:27:00,57.9,44.6,30.19,North,0,0.0,4.0,61,0.00,,,0.00,meteohub,2013-05-14 08:27:00,
2013-05-14 04:32:00,58.1,44.2,30.19,North,0,0.0,4.0,60,0.00,,,0.00,meteohub,2013-05-14 08:32:00,
2013-05-14 04:37:00,58.3,44.1,30.19,North,0,0.0,4.0,59,0.00,,,0.00,meteohub,2013-05-14 08:37:00,
2013-05-14 04:42:00,58.1,43.9,30.19,North,0,0.0,4.0,59,0.00,,,0.00,meteohub,2013-05-14 08:42:00,
2013-05-14 04:47:00,57.9,43.7,30.19,North,0,0.0,2.0,59,0.00,,,0.00,meteohub,2013-05-14 08:47:00,
2013-05-14 04:52:00,57.9,43.7,30.19,North,0,0.0,2.0,59,0.00,,,0.00,meteohub,2013-05-14 08:52:00,
2013-05-14 04:57:00,57.9,44.1,30.19,North,0,0.0,1.0,60,0.00,,,0.00,meteohub,2013-05-14 08:57:00,
2013-05-14 05:02:00,57.9,44.1,30.19,North,0,0.0,1.0,60,0.00,,,0.00,meteohub,2013-05-14 09:02:00,
2013-05-14 05:07:00,57.7,43.9,30.19,North,0,0.0,3.0,60,0.00,,,0.00,meteohub,2013-05-14 09:07:00,
2013-05-14 05:12:00,57.7,43.9,30.19,North,0,0.0,3.0,60,0.00,,,0.00,meteohub,2013-05-14 09:12:00,
2013-05-14 05:17:00,57.7,43.9,30.19,North,0,0.0,3.0,60,0.00,,,0.00,meteohub,2013-05-14 09:17:00,
2013-05-14 05:22:00,57.7,43.9,30.19,North,0,1.0,2.0,60,0.00,,,0.00,meteohub,2013-05-14 09:22:00,
2013-05-14 05:27:00,57.6,43.7,30.19,North,0,0.0,2.0,60,0.00,,,0.00,meteohub,2013-05-14 09:27:00,
2013-05-14 05:32:00,57.6,43.7,30.19,North,0,0.0,2.0,60,0.00,,,0.00,meteohub,2013-05-14 09:32:00,
2013-05-14 05:37:00,57.6,43.7,30.19,North,0,0.0,2.0,60,0.00,,,0.00,meteohub,2013-05-14 09:37:00,
2013-05-14 05:42:00,57.6,44.2,30.19,North,0,0.0,2.0,61,0.00,,,0.00,meteohub,2013-05-14 09:42:00,
2013-05-14 05:47:00,57.4,44.1,30.19,North,0,0.0,1.0,61,0.00,,,0.00,meteohub,2013-05-14 09:47:00,
2013-05-14 05:53:00,57.0,44.1,30.19,North,0,0.0,1.0,62,0.00,,,0.00,meteohub,2013-05-14 09:53:00,
2013-05-14 05:59:00,56.8,44.4,30.19,North,0,0.0,3.0,63,0.00,,,0.00,meteohub,2013-05-14 09:59:00,
2013-05-14 06:05:00,56.8,44.4,30.19,North,0,0.0,3.0,63,0.00,,,0.00,meteohub,2013-05-14 10:05:00,
2013-05-14 06:11:00,56.8,44.4,30.19,North,0,1.0,3.0,63,0.00,,,0.00,meteohub,2013-05-14 10:11:00,
2013-05-14 06:17:00,56.8,44.4,30.20,North,0,1.0,2.0,63,0.00,,,0.00,meteohub,2013-05-14 10:17:00,
2013-05-14 06:22:00,56.8,44.4,30.20,North,0,0.0,2.0,63,0.00,,,0.00,meteohub,2013-05-14 10:22:00,
2013-05-14 06:27:00,57.0,44.6,30.20,North,0,0.0,2.0,63,0.00,,,0.00,meteohub,2013-05-14 10:27:00,
2013-05-14 06:32:00,57.0,44.6,30.20,North,0,0.0,2.0,63,0.00,,,0.00,meteohub,2013-05-14 10:32:00,
2013-05-14 06:37:00,57.0,44.6,30.21,North,0,0.0,2.0,63,0.00,,,0.00,meteohub,2013-05-14 10:37:00,
2013-05-14 06:42:00,57.0,44.6,30.21,North,0,1.0,2.0,63,0.00,,,0.00,meteohub,2013-05-14 10:42:00,
2013-05-14 06:48:00,57.0,44.6,30.21,North,0,0.0,3.0,63,0.00,,,0.00,meteohub,2013-05-14 10:48:00,
2013-05-14 06:54:00,57.2,45.1,30.21,North,0,0.0,2.0,64,0.00,,,0.00,meteohub,2013-05-14 10:54:00,
2013-05-14 07:00:00,57.6,45.5,30.22,North,0,0.0,2.0,64,0.00,,,0.00,meteohub,2013-05-14 11:00:00,
2013-05-14 07:06:00,57.7,46.0,30.22,North,0,0.0,4.0,65,0.00,,,0.00,meteohub,2013-05-14 11:06:00,
2013-05-14 07:12:00,58.3,46.6,30.22,North,0,1.0,4.0,65,0.00,,,0.00,meteohub,2013-05-14 11:12:00,
2013-05-14 07:17:00,58.5,46.8,30.23,North,0,0.0,2.0,65,0.00,,,0.00,meteohub,2013-05-14 11:17:00,
2013-05-14 07:22:00,58.8,46.6,30.23,North,0,0.0,3.0,64,0.00,,,0.00,meteohub,2013-05-14 11:22:00,
2013-05-14 07:27:00,59.2,46.9,30.23,North,0,0.0,3.0,64,0.00,,,0.00,meteohub,2013-05-14 11:27:00,
2013-05-14 07:32:00,59.5,46.9,30.22,North,0,2.0,3.0,63,0.00,,,0.00,meteohub,2013-05-14 11:32:00,
2013-05-14 07:37:00,60.1,47.5,30.22,North,0,0.0,3.0,63,0.00,,,0.00,meteohub,2013-05-14 11:37:00,
2013-05-14 07:42:00,60.4,46.9,30.23,North,0,0.0,3.0,61,0.00,,,0.00,meteohub,2013-05-14 11:42:00,
2013-05-14 07:47:00,60.8,46.8,30.23,North,0,1.0,4.0,60,0.00,,,0.00,meteohub,2013-05-14 11:47:00,
2013-05-14 07:52:00,61.2,47.1,30.23,North,0,0.0,4.0,60,0.00,,,0.00,meteohub,2013-05-14 11:52:00,
2013-05-14 07:57:00,61.7,46.8,30.23,North,0,2.0,5.0,58,0.00,,,0.00,meteohub,2013-05-14 11:57:00,
2013-05-14 08:02:00,62.1,46.2,30.23,North,0,0.0,5.0,56,0.00,,,0.00,meteohub,2013-05-14 12:02:00,
2013-05-14 08:07:00,62.2,45.9,30.23,North,0,3.0,7.0,55,0.00,,,0.00,meteohub,2013-05-14 12:07:00,
2013-05-14 08:12:00,62.8,46.4,30.23,North,0,3.0,7.0,55,0.00,,,0.00,meteohub,2013-05-14 12:12:00,
2013-05-14 08:17:00,63.0,46.6,30.24,North,0,1.0,7.0,55,0.00,,,0.00,meteohub,2013-05-14 12:17:00,
2013-05-14 08:22:00,63.3,46.4,30.24,North,0,4.0,7.0,54,0.00,,,0.00,meteohub,2013-05-14 12:22:00,
2013-05-14 08:27:00,63.7,46.2,30.24,North,0,4.0,6.0,53,0.00,,,0.00,meteohub,2013-05-14 12:27:00,
2013-05-14 08:32:00,63.9,46.9,30.24,North,0,2.0,6.0,54,0.00,,,0.00,meteohub,2013-05-14 12:32:00,
2013-05-14 08:37:00,64.2,46.2,30.24,North,0,0.0,6.0,52,0.00,,,0.00,meteohub,2013-05-14 12:37:00,
2013-05-14 08:42:00,64.6,47.1,30.24,North,0,2.0,6.0,53,0.00,,,0.00,meteohub,2013-05-14 12:42:00,
2013-05-14 08:47:00,65.1,47.1,30.24,North,0,1.0,7.0,52,0.00,,,0.00,meteohub,2013-05-14 12:47:00,
2013-05-14 08:52:00,65.5,47.5,30.24,North,0,0.0,7.0,52,0.00,,,0.00,meteohub,2013-05-14 12:52:00,
2013-05-14 08:57:00,66.0,47.3,30.24,North,0,2.0,4.0,51,0.00,,,0.00,meteohub,2013-05-14 12:57:00,
2013-05-14 09:02:00,66.4,47.7,30.24,North,0,3.0,5.0,51,0.00,,,0.00,meteohub,2013-05-14 13:02:00,
2013-05-14 09:07:00,66.6,47.3,30.24,North,0,3.0,6.0,50,0.00,,,0.00,meteohub,2013-05-14 13:07:00,
2013-05-14 09:12:00,66.7,47.5,30.25,North,0,3.0,6.0,50,0.00,,,0.00,meteohub,2013-05-14 13:12:00,
2013-05-14 09:17:00,66.9,47.1,30.25,North,0,2.0,6.0,49,0.00,,,0.00,meteohub,2013-05-14 13:17:00,
2013-05-14 09:22:00,67.5,47.7,30.25,North,0,4.0,7.0,49,0.00,,,0.00,meteohub,2013-05-14 13:22:00,
2013-05-14 09:27:00,67.8,47.5,30.25,North,0,1.0,7.0,48,0.00,,,0.00,meteohub,2013-05-14 13:27:00,
2013-05-14 09:32:00,68.4,47.3,30.25,North,0,1.0,7.0,47,0.00,,,0.00,meteohub,2013-05-14 13:32:00,
2013-05-14 09:37:00,68.7,47.7,30.25,North,0,4.0,6.0,47,0.00,,,0.00,meteohub,2013-05-14 13:37:00,
2013-05-14 09:42:00,69.3,46.9,30.25,North,0,6.0,6.0,45,0.00,,,0.00,meteohub,2013-05-14 13:42:00,
2013-05-14 09:47:00,69.6,45.5,30.25,North,0,4.0,5.0,42,0.00,,,0.00,meteohub,2013-05-14 13:47:00,
2013-05-14 09:52:00,70.2,44.8,30.25,North,0,4.0,8.0,40,0.00,,,0.00,meteohub,2013-05-14 13:52:00,
2013-05-14 09:57:00,70.3,44.2,30.25,North,0,6.0,8.0,39,0.00,,,0.00,meteohub,2013-05-14 13:57:00,
2013-05-14 10:02:00,70.5,44.4,30.25,North,0,5.0,8.0,39,0.00,,,0.00,meteohub,2013-05-14 14:02:00,
2013-05-14 10:07:00,70.5,43.0,30.25,North,0,6.0,10.0,37,0.00,,,0.00,meteohub,2013-05-14 14:07:00,
2013-05-14 10:12:00,70.9,43.3,30.26,North,0,4.0,10.0,37,0.00,,,0.00,meteohub,2013-05-14 14:12:00,
2013-05-14 10:17:00,71.2,42.3,30.25,North,0,5.0,10.0,35,0.00,,,0.00,meteohub,2013-05-14 14:17:00,
2013-05-14 10:22:00,71.8,43.3,30.26,North,0,1.0,9.0,36,0.00,,,0.00,meteohub,2013-05-14 14:22:00,
2013-05-14 10:27:00,71.8,42.6,30.26,North,0,3.0,9.0,35,0.00,,,0.00,meteohub,2013-05-14 14:27:00,
2013-05-14 10:32:00,72.3,42.4,30.26,North,0,5.0,9.0,34,0.00,,,0.00,meteohub,2013-05-14 14:32:00,
2013-05-14 10:37:00,72.7,43.5,30.26,North,0,4.0,8.0,35,0.00,,,0.00,meteohub,2013-05-14 14:37:00,
2013-05-14 10:42:00,72.9,42.1,30.26,North,0,1.0,8.0,33,0.00,,,0.00,meteohub,2013-05-14 14:42:00,
2013-05-14 10:47:00,73.6,40.3,30.27,North,0,2.0,8.0,30,0.00,,,0.00,meteohub,2013-05-14 14:47:00,
2013-05-14 10:53:00,73.8,40.5,30.27,North,0,4.0,8.0,30,0.00,,,0.00,meteohub,2013-05-14 14:53:00,
2013-05-14 10:59:00,73.9,40.5,30.27,North,0,3.0,8.0,30,0.00,,,0.00,meteohub,2013-05-14 14:59:00,
2013-05-14 11:05:00,74.5,41.9,30.28,North,0,5.0,8.0,31,0.00,,,0.00,meteohub,2013-05-14 15:05:00,
2013-05-14 11:11:00,74.7,42.8,30.27,North,0,2.0,8.0,32,0.00,,,0.00,meteohub,2013-05-14 15:11:00,
2013-05-14 11:16:00,74.8,40.5,30.26,North,0,3.0,6.0,29,0.00,,,0.00,meteohub,2013-05-14 15:16:00,
2013-05-14 11:22:00,75.0,40.6,30.27,North,0,6.0,6.0,29,0.00,,,0.00,meteohub,2013-05-14 15:22:00,
2013-05-14 11:27:00,75.6,41.9,30.27,North,0,2.0,6.0,30,0.00,,,0.00,meteohub,2013-05-14 15:27:00,
2013-05-14 11:32:00,75.6,41.0,30.27,North,0,0.0,6.0,29,0.00,,,0.00,meteohub,2013-05-14 15:32:00,
2013-05-14 11:37:00,75.4,39.0,30.27,North,0,1.0,6.0,27,0.00,,,0.00,meteohub,2013-05-14 15:37:00,
2013-05-14 11:42:00,75.4,40.1,30.27,North,0,2.0,6.0,28,0.00,,,0.00,meteohub,2013-05-14 15:42:00,
2013-05-14 11:47:00,75.4,42.6,30.27,North,0,2.0,6.0,31,0.00,,,0.00,meteohub,2013-05-14 15:47:00,
2013-05-14 11:52:00,75.7,41.2,30.27,North,0,1.0,6.0,29,0.00,,,0.00,meteohub,2013-05-14 15:52:00,
2013-05-14 11:57:00,75.7,39.4,30.27,North,0,2.0,6.0,27,0.00,,,0.00,meteohub,2013-05-14 15:57:00,
2013-05-14 12:02:00,75.9,41.4,30.26,North,0,0.0,6.0,29,0.00,,,0.00,meteohub,2013-05-14 16:02:00,
2013-05-14 12:07:00,76.3,40.8,30.26,North,0,0.0,6.0,28,0.00,,,0.00,meteohub,2013-05-14 16:07:00,
2013-05-14 12:12:00,76.6,42.1,30.26,North,0,2.0,6.0,29,0.00,,,0.00,meteohub,2013-05-14 16:12:00,
2013-05-14 12:17:00,76.1,41.5,30.26,North,0,2.0,6.0,29,0.00,,,0.00,meteohub,2013-05-14 16:17:00,
2013-05-14 12:22:00,76.3,43.3,30.26,North,0,0.0,6.0,31,0.00,,,0.00,meteohub,2013-05-14 16:22:00,
2013-05-14 12:27:00,75.9,42.3,30.26,North,0,4.0,6.0,30,0.00,,,0.00,meteohub,2013-05-14 16:27:00,
2013-05-14 12:33:00,76.3,40.8,30.26,North,0,0.0,8.0,28,0.00,,,0.00,meteohub,2013-05-14 16:33:00,
2013-05-14 12:39:00,76.5,41.9,30.26,North,0,2.0,8.0,29,0.00,,,0.00,meteohub,2013-05-14 16:39:00,
2013-05-14 12:45:00,76.3,40.8,30.27,North,0,0.0,7.0,28,0.00,,,0.00,meteohub,2013-05-14 16:45:00,
2013-05-14 12:51:00,75.9,43.2,30.26,North,0,6.0,7.0,31,0.00,,,0.00,meteohub,2013-05-14 16:51:00,
2013-05-14 12:56:00,75.9,41.4,30.27,North,0,3.0,7.0,29,0.00,,,0.00,meteohub,2013-05-14 16:56:00,
2013-05-14 13:02:00,75.9,40.5,30.26,North,0,3.0,7.0,28,0.00,,,0.00,meteohub,2013-05-14 17:02:00,
2013-05-14 13:07:00,75.9,40.5,30.26,North,0,3.0,7.0,28,0.00,,,0.00,meteohub,2013-05-14 17:07:00,
2013-05-14 13:12:00,75.7,42.1,30.26,North,0,6.0,7.0,30,0.00,,,0.00,meteohub,2013-05-14 17:12:00,
2013-05-14 13:17:00,75.7,41.2,30.26,North,0,3.0,9.0,29,0.00,,,0.00,meteohub,2013-05-14 17:17:00,
2013-05-14 13:22:00,75.9,42.3,30.25,North,0,4.0,10.0,30,0.00,,,0.00,meteohub,2013-05-14 17:22:00,
2013-05-14 13:27:00,75.9,42.3,30.25,North,0,7.0,10.0,30,0.00,,,0.00,meteohub,2013-05-14 17:27:00,
2013-05-14 13:32:00,76.3,42.6,30.25,North,0,3.0,9.0,30,0.00,,,0.00,meteohub,2013-05-14 17:32:00,
2013-05-14 13:37:00,76.5,41.0,30.25,North,0,3.0,11.0,28,0.00,,,0.00,meteohub,2013-05-14 17:37:00,
2013-05-14 13:42:00,76.3,42.6,30.25,North,0,5.0,11.0,30,0.00,,,0.00,meteohub,2013-05-14 17:42:00,
2013-05-14 13:47:00,76.6,42.1,30.25,North,0,4.0,10.0,29,0.00,,,0.00,meteohub,2013-05-14 17:47:00,
2013-05-14 13:52:00,76.8,42.1,30.25,North,0,4.0,10.0,29,0.00,,,0.00,meteohub,2013-05-14 17:52:00,
2013-05-14 13:57:00,77.2,42.4,30.25,North,0,2.0,8.0,29,0.00,,,0.00,meteohub,2013-05-14 17:57:00,
2013-05-14 14:02:00,77.4,41.7,30.24,North,0,4.0,8.0,28,0.00,,,0.00,meteohub,2013-05-14 18:02:00,
2013-05-14 14:07:00,77.2,42.4,30.24,North,0,4.0,8.0,29,0.00,,,0.00,meteohub,2013-05-14 18:07:00,
2013-05-14 14:12:00,77.4,42.6,30.24,North,0,7.0,8.0,29,0.00,,,0.00,meteohub,2013-05-14 18:12:00,
2013-05-14 14:17:00,77.5,42.8,30.24,North,0,3.0,9.0,29,0.00,,,0.00,meteohub,2013-05-14 18:17:00,
2013-05-14 14:22:00,77.5,41.9,30.24,North,0,4.0,9.0,28,0.00,,,0.00,meteohub,2013-05-14 18:22:00,
2013-05-14 14:27:00,76.8,42.1,30.24,North,0,9.0,12.0,29,0.00,,,0.00,meteohub,2013-05-14 18:27:00,
2013-05-14 14:32:00,76.8,41.2,30.24,North,0,5.0,15.0,28,0.00,,,0.00,meteohub,2013-05-14 18:32:00,
2013-05-14 14:37:00,77.2,42.4,30.24,North,0,7.0,15.0,29,0.00,,,0.00,meteohub,2013-05-14 18:37:00,
2013-05-14 14:42:00,77.4,42.6,30.23,North,0,2.0,15.0,29,0.00,,,0.00,meteohub,2013-05-14 18:42:00,
2013-05-14 14:47:00,77.5,41.9,30.24,North,0,1.0,8.0,28,0.00,,,0.00,meteohub,2013-05-14 18:47:00,
2013-05-14 14:52:00,78.1,41.4,30.23,North,0,4.0,9.0,27,0.00,,,0.00,meteohub,2013-05-14 18:52:00,
2013-05-14 14:57:00,77.5,41.0,30.23,North,0,4.0,9.0,27,0.00,,,0.00,meteohub,2013-05-14 18:57:00,
2013-05-14 15:02:00,78.1,43.2,30.22,North,0,3.0,10.0,29,0.00,,,0.00,meteohub,2013-05-14 19:02:00,
2013-05-14 15:07:00,78.3,42.4,30.23,North,0,3.0,10.0,28,0.00,,,0.00,meteohub,2013-05-14 19:07:00,
2013-05-14 15:12:00,78.3,42.4,30.23,North,0,1.0,10.0,28,0.00,,,0.00,meteohub,2013-05-14 19:12:00,
2013-05-14 15:17:00,78.4,41.7,30.23,North,0,2.0,9.0,27,0.00,,,0.00,meteohub,2013-05-14 19:17:00,
2013-05-14 15:22:00,78.8,42.1,30.23,North,0,1.0,9.0,27,0.00,,,0.00,meteohub,2013-05-14 19:22:00,
2013-05-14 15:27:00,79.0,48.2,30.22,North,0,2.0,7.0,34,0.00,,,0.00,meteohub,2013-05-14 19:27:00,
2013-05-14 15:32:00,79.2,49.1,30.22,North,0,1.0,7.0,35,0.00,,,0.00,meteohub,2013-05-14 19:32:00,
2013-05-14 15:37:00,79.5,47.8,30.22,North,0,3.0,7.0,33,0.00,,,0.00,meteohub,2013-05-14 19:37:00,
2013-05-14 15:42:00,79.3,46.0,30.22,North,0,0.0,7.0,31,0.00,,,0.00,meteohub,2013-05-14 19:42:00,
2013-05-14 15:47:00,79.7,48.0,30.21,North,0,4.0,8.0,33,0.00,,,0.00,meteohub,2013-05-14 19:47:00,
2013-05-14 15:53:00,79.9,49.8,30.22,North,0,2.0,8.0,35,0.00,,,0.00,meteohub,2013-05-14 19:53:00,
2013-05-14 15:59:00,79.5,50.2,30.21,North,0,2.0,8.0,36,0.00,,,0.00,meteohub,2013-05-14 19:59:00,
2013-05-14 16:05:00,79.9,49.8,30.21,North,0,1.0,8.0,35,0.00,,,0.00,meteohub,2013-05-14 20:05:00,
2013-05-14 16:11:00,79.7,48.0,30.21,North,0,2.0,8.0,33,0.00,,,0.00,meteohub,2013-05-14 20:11:00,
2013-05-14 16:16:00,79.2,48.4,30.21,North,0,2.0,7.0,34,0.00,,,0.00,meteohub,2013-05-14 20:16:00,
2013-05-14 16:22:00,79.0,48.9,30.21,North,0,1.0,9.0,35,0.00,,,0.00,meteohub,2013-05-14 20:22:00,
2013-05-14 16:27:00,79.0,48.2,30.21,North,0,3.0,9.0,34,0.00,,,0.00,meteohub,2013-05-14 20:27:00,
2013-05-14 16:32:00,79.2,48.4,30.21,North,0,1.0,8.0,34,0.00,,,0.00,meteohub,2013-05-14 20:32:00,
2013-05-14 16:37:00,79.5,49.5,30.20,North,0,0.0,7.0,35,0.00,,,0.00,meteohub,2013-05-14 20:37:00,
2013-05-14 16:42:00,79.9,51.3,30.20,North,0,2.0,7.0,37,0.00,,,0.00,meteohub,2013-05-14 20:42:00,
2013-05-14 16:47:00,79.2,51.4,30.21,North,0,4.0,7.0,38,0.00,,,0.00,meteohub,2013-05-14 20:47:00,
2013-05-14 16:52:00,78.3,50.5,30.21,North,0,2.0,7.0,38,0.00,,,0.00,meteohub,2013-05-14 20:52:00,
2013-05-14 16:57:00,78.1,51.1,30.20,North,0,1.0,10.0,39,0.00,,,0.00,meteohub,2013-05-14 20:57:00,
2013-05-14 17:02:00,78.4,51.4,30.20,North,0,4.0,10.0,39,0.00,,,0.00,meteohub,2013-05-14 21:02:00,
2013-05-14 17:07:00,78.3,52.0,30.20,North,0,5.0,10.0,40,0.00,,,0.00,meteohub,2013-05-14 21:07:00,
2013-05-14 17:12:00,77.7,51.4,30.20,North,0,5.0,10.0,40,0.00,,,0.00,meteohub,2013-05-14 21:12:00,
2013-05-14 17:17:00,77.5,51.3,30.20,North,0,0.0,8.0,40,0.00,,,0.00,meteohub,2013-05-14 21:17:00,
2013-05-14 17:22:00,77.4,51.8,30.20,North,0,2.0,11.0,41,0.00,,,0.00,meteohub,2013-05-14 21:22:00,
2013-05-14 17:27:00,77.2,51.1,30.20,North,0,8.0,11.0,40,0.00,,,0.00,meteohub,2013-05-14 21:27:00,
2013-05-14 17:32:00,76.8,52.0,30.20,North,0,3.0,11.0,42,0.00,,,0.00,meteohub,2013-05-14 21:32:00,
2013-05-14 17:37:00,77.0,51.4,30.19,North,0,2.0,8.0,41,0.00,,,0.00,meteohub,2013-05-14 21:37:00,
2013-05-14 17:42:00,76.8,51.3,30.20,North,0,2.0,8.0,41,0.00,,,0.00,meteohub,2013-05-14 21:42:00,
2013-05-14 17:47:00,76.6,51.8,30.20,North,0,3.0,7.0,42,0.00,,,0.00,meteohub,2013-05-14 21:47:00,
2013-05-14 17:52:00,76.5,51.6,30.20,North,0,7.0,8.0,42,0.00,,,0.00,meteohub,2013-05-14 21:52:00,
2013-05-14 17:57:00,76.3,51.4,30.19,North,0,6.0,8.0,42,0.00,,,0.00,meteohub,2013-05-14 21:57:00,
2013-05-14 18:02:00,75.9,51.3,30.19,North,0,6.0,9.0,42,0.00,,,0.00,meteohub,2013-05-14 22:02:00,
2013-05-14 18:07:00,76.1,52.0,30.19,North,0,4.0,9.0,43,0.00,,,0.00,meteohub,2013-05-14 22:07:00,
2013-05-14 18:12:00,75.9,51.3,30.19,North,0,6.0,9.0,42,0.00,,,0.00,meteohub,2013-05-14 22:12:00,
2013-05-14 18:17:00,75.4,51.3,30.19,North,0,3.0,11.0,43,0.00,,,0.00,meteohub,2013-05-14 22:17:00,
2013-05-14 18:22:00,75.0,51.1,30.19,North,0,5.0,13.0,43,0.00,,,0.00,meteohub,2013-05-14 22:22:00,
2013-05-14 18:27:00,74.8,50.9,30.19,North,0,4.0,13.0,43,0.00,,,0.00,meteohub,2013-05-14 22:27:00,
2013-05-14 18:33:00,74.8,51.4,30.19,North,0,5.0,9.0,44,0.00,,,0.00,meteohub,2013-05-14 22:33:00,
2013-05-14 18:39:00,74.7,51.3,30.19,North,0,3.0,8.0,44,0.00,,,0.00,meteohub,2013-05-14 22:39:00,
2013-05-14 18:44:00,74.5,51.1,30.19,North,0,4.0,8.0,44,0.00,,,0.00,meteohub,2013-05-14 22:44:00,
2013-05-14 18:50:00,74.5,51.1,30.19,North,0,3.0,8.0,44,0.00,,,0.00,meteohub,2013-05-14 22:50:00,
2013-05-14 18:56:00,74.1,50.9,30.19,North,0,3.0,8.0,44,0.00,,,0.00,meteohub,2013-05-14 22:56:00,
2013-05-14 19:02:00,73.9,49.5,30.19,North,0,7.0,7.0,42,0.00,,,0.00,meteohub,2013-05-14 23:02:00,
2013-05-14 19:07:00,73.6,49.6,30.19,North,0,3.0,11.0,43,0.00,,,0.00,meteohub,2013-05-14 23:07:00,
2013-05-14 19:12:00,73.4,49.5,30.19,North,0,4.0,11.0,43,0.00,,,0.00,meteohub,2013-05-14 23:12:00,
2013-05-14 19:17:00,73.2,50.0,30.19,North,0,3.0,11.0,44,0.00,,,0.00,meteohub,2013-05-14 23:17:00,
2013-05-14 19:22:00,73.0,49.8,30.19,North,0,3.0,8.0,44,0.00,,,0.00,meteohub,2013-05-14 23:22:00,
2013-05-14 19:27:00,72.9,49.6,30.19,North,0,4.0,7.0,44,0.00,,,0.00,meteohub,2013-05-14 23:27:00,
2013-05-14 19:33:00,72.7,49.5,30.19,North,0,2.0,6.0,44,0.00,,,0.00,meteohub,2013-05-14 23:33:00,
2013-05-14 19:39:00,72.5,50.0,30.19,North,0,1.0,6.0,45,0.00,,,0.00,meteohub,2013-05-14 23:39:00,
2013-05-14 19:45:00,72.1,50.2,30.19,North,0,2.0,6.0,46,0.00,,,0.00,meteohub,2013-05-14 23:45:00,
2013-05-14 19:51:00,72.0,50.7,30.19,North,0,3.0,6.0,47,0.00,,,0.00,meteohub,2013-05-14 23:51:00,
2013-05-14 19:57:00,72.0,51.3,30.19,North,0,2.0,6.0,48,0.00,,,0.00,meteohub,2013-05-14 23:57:00,
2013-05-14 20:02:00,71.2,51.1,30.19,North,0,3.0,5.0,49,0.00,,,0.00,meteohub,2013-05-15 00:02:00,
2013-05-14 20:07:00,71.1,51.4,30.19,North,0,0.0,6.0,50,0.00,,,0.00,meteohub,2013-05-15 00:07:00,
2013-05-14 20:12:00,70.7,51.6,30.19,North,0,3.0,6.0,51,0.00,,,0.00,meteohub,2013-05-15 00:12:00,
2013-05-14 20:17:00,70.3,51.8,30.19,North,0,0.0,6.0,52,0.00,,,0.00,meteohub,2013-05-15 00:17:00,
2013-05-14 20:22:00,70.2,51.8,30.19,North,0,1.0,6.0,52,0.00,,,0.00,meteohub,2013-05-15 00:22:00,
2013-05-14 20:27:00,70.0,52.0,30.20,North,0,1.0,7.0,53,0.00,,,0.00,meteohub,2013-05-15 00:27:00,
2013-05-14 20:32:00,69.8,52.3,30.20,North,0,0.0,7.0,54,0.00,,,0.00,meteohub,2013-05-15 00:32:00,
2013-05-14 20:37:00,69.6,52.2,30.20,North,0,0.0,4.0,54,0.00,,,0.00,meteohub,2013-05-15 00:37:00,
2013-05-14 20:42:00,69.6,52.7,30.20,North,0,0.0,4.0,55,0.00,,,0.00,meteohub,2013-05-15 00:42:00,
2013-05-14 20:47:00,69.4,52.5,30.20,North,0,0.0,4.0,55,0.00,,,0.00,meteohub,2013-05-15 00:47:00,
2013-05-14 20:52:00,69.3,52.9,30.20,North,0,0.0,4.0,56,0.00,,,0.00,meteohub,2013-05-15 00:52:00,
2013-05-14 20:57:00,69.1,53.2,30.20,North,0,0.0,4.0,57,0.00,,,0.00,meteohub,2013-05-15 00:57:00,
2013-05-14 21:02:00,68.9,53.1,30.20,North,0,0.0,4.0,57,0.00,,,0.00,meteohub,2013-05-15 01:02:00,
2013-05-14 21:07:00,68.7,53.4,30.20,North,0,0.0,3.0,58,0.00,,,0.00,meteohub,2013-05-15 01:07:00,
2013-05-14 21:13:00,68.5,53.2,30.21,North,0,0.0,3.0,58,0.00,,,0.00,meteohub,2013-05-15 01:13:00,
2013-05-14 21:19:00,68.2,53.2,30.21,North,0,1.0,3.0,59,0.00,,,0.00,meteohub,2013-05-15 01:19:00,
2013-05-14 21:25:00,68.0,53.6,30.21,North,0,0.0,3.0,60,0.00,,,0.00,meteohub,2013-05-15 01:25:00,
2013-05-14 21:31:00,67.8,53.4,30.21,North,0,1.0,3.0,60,0.00,,,0.00,meteohub,2013-05-15 01:31:00,
2013-05-14 21:37:00,67.6,53.2,30.21,North,0,0.0,3.0,60,0.00,,,0.00,meteohub,2013-05-15 01:37:00,
2013-05-14 21:42:00,67.6,53.8,30.21,North,0,1.0,4.0,61,0.00,,,0.00,meteohub,2013-05-15 01:42:00,
2013-05-14 21:47:00,67.5,53.6,30.21,North,0,0.0,4.0,61,0.00,,,0.00,meteohub,2013-05-15 01:47:00,
2013-05-14 21:52:00,67.5,53.6,30.22,North,0,0.0,4.0,61,0.00,,,0.00,meteohub,2013-05-15 01:52:00,
2013-05-14 21:57:00,67.5,53.6,30.22,North,0,0.0,3.0,61,0.00,,,0.00,meteohub,2013-05-15 01:57:00,
2013-05-14 22:02:00,67.5,54.0,30.22,North,0,0.0,3.0,62,0.00,,,0.00,meteohub,2013-05-15 02:02:00,
2013-05-14 22:07:00,67.3,53.8,30.22,North,0,0.0,3.0,62,0.00,,,0.00,meteohub,2013-05-15 02:07:00,
2013-05-14 22:13:00,67.3,54.3,30.22,North,0,0.0,2.0,63,0.00,,,0.00,meteohub,2013-05-15 02:13:00,
2013-05-14 22:19:00,66.9,54.0,30.23,North,0,0.0,2.0,63,0.00,,,0.00,meteohub,2013-05-15 02:19:00,
2013-05-14 22:25:00,66.7,54.1,30.23,North,0,0.0,0.0,64,0.00,,,0.00,meteohub,2013-05-15 02:25:00,
2013-05-14 22:31:00,66.7,54.7,30.23,North,0,0.0,0.0,65,0.00,,,0.00,meteohub,2013-05-15 02:31:00,
2013-05-14 22:36:00,66.7,54.7,30.23,North,0,0.0,0.0,65,0.00,,,0.00,meteohub,2013-05-15 02:36:00,
2013-05-14 22:42:00,66.7,55.0,30.23,North,0,0.0,0.0,66,0.00,,,0.00,meteohub,2013-05-15 02:42:00,
2013-05-14 22:47:00,66.7,55.4,30.22,North,0,0.0,2.0,67,0.00,,,0.00,meteohub,2013-05-15 02:47:00,
2013-05-14 22:52:00,66.6,54.9,30.23,North,0,0.0,2.0,66,0.00,,,0.00,meteohub,2013-05-15 02:52:00,
2013-05-14 22:57:00,66.4,55.9,30.23,North,0,0.0,2.0,69,0.00,,,0.00,meteohub,2013-05-15 02:57:00,
2013-05-14 23:02:00,66.0,55.6,30.23,North,0,0.0,0.0,69,0.00,,,0.00,meteohub,2013-05-15 03:02:00,
2013-05-14 23:07:00,65.8,55.4,30.23,North,0,0.0,0.0,69,0.00,,,0.00,meteohub,2013-05-15 03:07:00,
2013-05-14 23:12:00,65.7,55.6,30.23,North,0,0.0,0.0,70,0.00,,,0.00,meteohub,2013-05-15 03:12:00,
2013-05-14 23:17:00,65.5,55.8,30.23,North,0,0.0,0.0,71,0.00,,,0.00,meteohub,2013-05-15 03:17:00,
2013-05-14 23:22:00,65.1,55.4,30.24,North,0,0.0,0.0,71,0.00,,,0.00,meteohub,2013-05-15 03:22:00,
2013-05-14 23:27:00,64.8,55.6,30.24,North,0,0.0,0.0,72,0.00,,,0.00,meteohub,2013-05-15 03:27:00,
2013-05-14 23:32:00,64.8,56.3,30.24,North,0,0.0,0.0,74,0.00,,,0.00,meteohub,2013-05-15 03:32:00,
2013-05-14 23:37:00,64.6,56.5,30.24,North,0,0.0,0.0,75,0.00,,,0.00,meteohub,2013-05-15 03:37:00,
2013-05-14 23:42:00,64.4,56.3,30.24,North,0,0.0,0.0,75,0.00,,,0.00,meteohub,2013-05-15 03:42:00,
2013-05-14 23:47:00,64.2,55.8,30.24,North,0,0.0,0.0,74,0.00,,,0.00,meteohub,2013-05-15 03:47:00,
2013-05-14 23:52:00,64.0,55.9,30.24,North,0,0.0,0.0,75,0.00,,,0.00,meteohub,2013-05-15 03:52:00,
2013-05-14 23:57:00,64.0,56.3,30.24,North,0,0.0,0.0,76,0.00,,,0.00,meteohub,2013-05-15 03:57:00,